Wind_Speed
6 7 9 14 5 5 3 8 13 8 4 7 5 6 3 5 9 10 11 10 7 6 5 6 6 8 11 14 17 17 18 18 13 9 4 8 10 8 7 6 6 5 4 4
6 4 4 5 3 5 6 7 7 6 5 4 10 9 7 8 8 8 9 8 8 8 8 8 9 11 11 14 15 15 14 12 11 8 11 10 10 7 6 5 5 5 4 4
8 5 3 5 7 8 5 5 10 7 7 2 8 6 8 5 7 6 5 5 8 9 11 11 11 11 13 14 14 13 12 12 11 11 9 8 6 6 3 2 1 2 2 3
4 3 5 7 6 4 6 3 6 11 12 7 6 5 10 9 8 8 9 10 10 12 11 10 14 16 16 15 14 14 14 14 13 12 9 9 4 4 1 1 1 1 2 3
4 6 6 5 3 2 4 4 5 5 5 5 9 7 8 9 9 11 11 12 12 12 10 13 16 17 16 14 13 11 11 9 9 7 7 6 4 4 2 1 3 5 5 5
6 2 2 4 5 3 12 8 6 3 3 8 3 6 6 6 8 12 14 13 13 12 13 16 15 13 12 10 10 10 10 9 7 7 7 6 5 3 0 3 5 7 8 7
7 4 4 3 9 6 6 6 3 5 6 6 3 6 10 4 4 11 16 16 14 14 14 13 14 13 12 11 10 10 10 9 8 8 7 6 5 3 2 5 7 9 10 12
9 6 4 1 3 3 3 4 3 4 3 1 2 5 3 3 1 5 14 15 15 15 13 13 14 13 12 12 11 9 8 8 8 8 7 4 1 2 5 7 9 11 13 15
6 4 4 2 1 3 4 5 3 2 1 3 3 3 6 3 4 9 13 16 17 15 13 12 13 12 11 10 9 8 8 8 8 7 5 2 2 4 7 9 11 12 14 15
4 4 2 4 1 7 4 9 3 3 3 4 4 4 2 7 8 12 16 17 16 14 12 10 10 9 9 8 9 9 8 8 6 3 1 1 4 6 7 8 9 11 12 14
5 3 6 3 7 6 4 5 1 1 2 2 2 3 3 4 9 14 15 16 15 13 11 10 10 10 10 11 11 10 8 6 3 2 1 3 4 6 7 8 8 10 13 17
2 1 4 7 3 1 3 6 9 4 5 1 2 2 5 3 4 8 12 14 12 11 11 11 13 14 14 12 10 9 7 6 3 3 1 4 6 6 7 8 10 13 16 18
6 4 4 5 5 5 7 9 5 3 1 6 3 2 4 4 4 9 11 13 12 12 12 12 13 13 12 11 11 9 6 6 4 1 5 7 8 7 8 10 12 14 17 18
3 3 7 9 2 0 6 11 12 11 4 5 10 9 8 9 9 9 12 13 14 13 13 12 11 12 12 11 11 9 7 3 1 4 8 9 9 8 10 12 13 15 17 16
3 6 4 1 0 3 4 7 13 15 13 8 10 11 9 9 11 11 12 13 14 14 13 12 11 12 12 12 11 9 5 1 4 7 9 9 9 10 12 13 14 15 16 15
2 3 3 4 2 2 6 8 11 15 16 15 18 18 10 6 7 11 14 15 15 15 14 12 12 12 12 13 10 6 2 2 6 7 9 10 12 13 14 14 15 15 17 16
4 6 4 2 2 2 6 16 18 13 13 14 14 14 7 7 10 14 15 16 15 15 14 13 12 12 12 10 7 4 2 2 5 8 10 11 12 14 15 15 15 16 17 16
6 5 2 1 1 3 1 1 2 13 16 14 16 6 6 2 5 8 11 14 14 14 13 12 13 12 12 9 6 3 2 4 6 8 10 11 12 14 14 14 15 17 17 15
0 4 3 2 4 6 11 4 3 4 7 6 14 7 5 4 4 6 10 12 13 12 13 14 13 12 11 7 4 2 4 6 7 9 10 11 12 14 14 14 16 18 16 17
4 3 1 3 3 4 2 3 1 2 6 3 5 8 8 8 5 3 14 12 11 13 14 14 14 12 9 5 3 4 7 7 9 9 11 12 13 13 14 16 17 16 16 15
2 2 4 3 3 6 1 2 3 3 3 1 5 9 11 7 2 3 12 12 14 15 15 15 13 8 5 3 4 7 8 9 9 10 12 13 12 13 14 15 14 14 13 9
6 6 3 3 3 5 6 6 3 3 1 2 3 4 8 2 3 7 11 13 15 17 17 13 9 5 4 3 5 8 10 10 11 12 14 13 12 13 13 13 13 11 9 7
4 3 2 6 2 3 7 4 1 2 3 2 3 3 6 7 7 10 11 12 15 15 12 8 5 4 3 3 6 9 11 11 12 13 13 13 13 14 13 12 11 10 9 8
4 4 3 2 2 7 8 9 8 9 8 5 4 5 6 8 10 12 12 11 13 12 8 3 4 2 4 5 7 10 11 11 12 12 12 12 13 14 14 10 9 9 9 9
1 8 5 5 9 6 1 2 7 5 2 2 1 0 4 10 11 13 11 12 11 8 5 6 3 3 6 7 9 10 11 11 12 12 13 14 14 13 13 12 11 11 11 11
5 3 4 2 4 3 4 6 7 3 2 4 7 11 11 14 12 15 11 11 9 10 8 5 4 5 7 8 9 10 10 11 13 14 14 13 14 14 14 14 14 14 15 13
Wind_Direction
185 205 207 188 220 67 153 171 166 136 137 149 179 125 88 145 178 178 182 177 167 161 122 111 119 131 143 151 156 164 164 167 185 204 197 197 163 146 121 110 105 93 89 64
196 150 97 123 135 132 168 187 137 128 142 221 172 141 134 171 178 194 182 179 166 147 128 134 129 133 142 150 154 158 164 180 182 179 158 150 154 144 149 135 106 78 56 45
239 82 116 153 143 138 135 152 160 174 136 93 180 180 169 132 154 152 174 154 155 145 130 125 126 129 133 141 149 157 160 161 154 148 147 140 144 138 154 143 101 63 55 21
78 98 158 148 138 271 136 88 138 150 188 194 207 242 173 164 155 170 166 169 148 137 133 133 137 133 130 129 138 146 153 154 157 156 163 167 206 212 124 124 135 340 352 323
109 146 157 152 65 299 110 156 132 182 215 218 188 252 115 165 188 176 174 167 161 154 151 147 145 139 133 131 135 138 137 137 140 149 156 157 140 124 122 353 317 296 291 298
108 91 19 74 68 185 137 141 122 161 237 243 225 262 266 178 224 175 177 177 171 165 162 158 151 149 143 140 140 142 140 137 139 129 126 123 122 112 335 308 307 312 312 311
155 104 110 169 128 149 213 190 219 220 217 250 96 247 275 110 170 187 182 179 178 169 168 168 166 171 165 165 160 159 158 144 133 118 108 109 115 112 302 323 327 325 321 311
184 168 176 145 285 192 163 258 236 261 231 273 174 239 97 84 152 189 181 179 173 174 175 179 179 178 173 169 172 170 164 144 129 126 123 121 133 324 322 332 325 312 304 303
182 129 127 42 155 291 138 218 37 127 50 272 226 200 188 166 169 173 180 178 180 181 180 186 184 187 179 178 168 170 158 140 131 126 122 151 273 319 320 315 308 302 299 300
151 143 174 130 150 62 280 131 179 215 223 234 182 252 151 181 174 178 183 188 184 184 185 187 186 181 179 167 150 138 135 132 129 149 142 240 297 310 314 312 313 314 311 312
160 221 153 183 212 193 155 194 211 268 275 268 269 141 103 149 172 187 191 190 186 184 181 173 169 162 153 145 139 136 138 127 122 107 287 272 316 328 321 320 323 323 319 316
115 159 183 198 127 289 267 227 208 233 181 208 318 288 165 173 195 194 187 185 178 179 168 158 155 153 150 147 141 136 129 116 115 175 239 325 322 320 321 323 323 320 318 316
169 191 179 178 182 184 224 197 205 136 128 207 185 244 169 177 196 201 192 178 176 170 160 155 157 156 150 140 135 133 144 148 138 335 318 313 315 314 316 315 314 316 316 314
184 188 240 239 270 269 199 200 201 208 203 217 237 268 189 210 208 199 201 185 176 174 169 167 162 157 152 152 154 160 156 135 347 325 317 315 311 305 304 307 306 309 312 309
229 230 212 200 88 242 257 225 204 216 234 221 261 250 276 213 217 205 194 185 176 177 175 174 168 163 165 160 159 161 150 203 323 322 316 311 300 296 297 295 298 306 311 310
173 199 186 218 218 281 265 243 234 232 246 251 260 267 273 243 242 187 190 187 185 182 180 177 172 169 168 171 164 158 168 297 318 317 305 301 296 292 287 291 297 304 309 305
171 159 164 232 3 272 276 238 225 225 226 239 248 261 165 198 199 198 193 192 191 185 182 179 176 175 173 167 160 177 224 295 311 302 302 304 299 292 289 291 295 300 306 302
142 132 76 141 221 221 329 90 303 250 256 246 260 253 238 211 194 208 202 195 193 187 182 176 174 169 167 164 172 181 272 297 297 299 301 304 304 299 291 290 292 303 306 298
214 137 120 176 218 314 281 197 225 212 287 255 246 230 183 141 169 210 202 197 192 185 177 172 171 166 163 168 171 232 276 286 289 292 299 306 306 300 297 294 299 303 303 297
83 65 210 147 215 244 41 81 167 222 271 7 219 188 182 170 223 308 183 184 173 169 162 158 151 154 161 162 195 261 277 285 288 295 302 305 305 302 299 298 298 301 300 297
114 39 206 174 238 279 287 130 161 235 14 3 195 185 177 200 293 82 161 165 163 154 147 141 146 151 150 184 239 272 278 283 296 298 302 305 304 305 302 301 297 300 305 292
179 165 177 134 200 273 154 142 215 16 47 346 230 198 205 151 106 132 148 151 145 139 138 139 139 146 185 224 270 280 285 300 303 303 305 305 301 306 304 299 299 302 304 284
223 228 214 212 225 105 195 281 337 329 345 1 321 223 210 184 160 145 143 139 132 133 132 129 142 194 223 266 284 289 294 299 302 306 308 304 300 303 302 296 299 294 290 284
211 178 232 235 167 238 247 264 270 274 279 297 292 290 214 195 161 140 129 128 127 118 120 177 206 234 276 286 292 288 294 297 297 299 306 303 303 303 303 290 286 280 280 286
31 167 200 246 281 270 307 329 334 307 291 279 22 181 177 150 146 131 124 109 114 117 189 218 224 265 287 289 293 300 301 297 294 298 303 302 300 295 292 284 278 274 279 283
189 194 198 255 36 328 32 15 359 20 69 100 111 100 96 118 117 109 107 124 162 204 209 220 245 267 283 295 302 305 303 300 294 296 297 297 299 295 289 282 280 274 272 277
Height
771 776 782 772 772 770 774 779 785 783 787 787 791 799 804 806 807 811 812 814 817 821 828 830 832 833 835 838 842 846 847 849 852 854 855 863 860 863 863 865 865 866 867 866
776 778 777 776 776 776 780 782 786 792 793 789 796 803 808 808 808 808 811 814 818 823 827 831 832 833 836 839 841 845 848 849 852 854 857 859 860 861 864 865 865 865 865 865
770 780 779 776 780 783 784 782 790 786 793 791 792 802 806 813 812 814 813 813 816 819 825 828 831 834 836 839 842 845 848 850 851 853 856 858 860 863 865 866 866 865 866 866
778 779 780 778 783 780 786 785 784 790 790 794 793 795 793 804 811 813 817 817 818 821 824 828 831 834 837 840 843 846 848 849 851 852 855 857 857 858 863 865 865 865 864 864
786 782 782 781 787 784 791 786 786 788 788 790 793 796 787 800 808 811 814 815 818 821 824 828 831 834 838 843 846 849 851 853 855 855 856 858 859 861 862 864 864 864 863 862
780 779 779 783 787 783 787 789 789 788 791 804 788 798 778 788 793 804 811 814 816 820 824 828 832 837 841 845 848 850 852 855 856 857 858 858 860 861 862 862 862 861 860 859
783 786 783 783 789 790 787 790 804 812 809 807 802 803 782 790 795 796 805 810 814 819 823 827 832 836 841 845 848 850 852 854 856 857 859 860 861 861 862 861 860 859 858 857
787 801 787 786 785 783 787 788 804 822 814 803 806 801 786 792 795 795 799 805 812 817 822 826 831 835 839 843 846 848 851 853 854 856 858 860 861 860 860 859 858 857 856 855
786 793 787 789 785 785 794 797 796 809 822 817 790 790 790 795 797 799 800 805 810 815 820 825 830 834 837 841 845 847 850 852 855 855 856 858 859 858 858 857 856 855 854 853
780 796 788 790 786 790 788 790 806 805 826 817 792 794 782 795 796 798 800 803 807 813 819 824 829 834 838 841 845 848 850 852 854 856 856 857 857 856 855 855 854 853 852 850
773 780 797 792 790 787 799 797 800 797 807 810 810 786 782 785 787 793 793 800 804 813 819 825 831 835 839 842 845 848 851 852 854 855 856 856 854 853 853 852 851 850 849 846
780 781 794 789 789 789 787 787 790 802 809 813 810 792 787 789 788 788 790 796 803 814 821 826 831 835 838 841 844 847 850 852 852 853 854 853 852 851 850 849 848 847 845 843
779 785 798 798 793 792 791 789 790 799 802 806 816 790 787 790 792 790 792 802 810 816 821 826 831 834 837 842 844 849 850 851 850 851 851 851 849 848 847 846 845 844 842 839
782 783 781 788 780 779 791 790 790 788 804 792 791 779 787 788 788 791 793 801 808 814 819 823 829 832 837 841 843 847 849 848 849 848 848 847 846 845 844 843 842 841 839 836
780 784 786 791 793 792 787 786 789 790 783 795 777 779 770 775 781 785 792 801 807 811 816 821 825 831 835 839 843 843 845 846 846 845 845 844 843 842 841 840 839 838 835 833
784 788 793 797 800 799 797 788 785 783 780 780 775 777 767 774 778 785 793 799 804 808 813 819 823 829 833 837 838 840 842 844 844 843 843 842 841 840 838 837 835 834 831 828
784 790 795 796 805 803 809 783 777 775 774 775 779 769 774 781 782 784 789 795 800 806 812 817 823 828 832 834 837 839 842 842 842 842 841 840 838 836 834 833 831 829 826 824
790 791 805 804 820 811 768 776 776 771 767 767 771 775 773 774 779 781 785 792 798 804 811 817 823 828 831 834 837 839 840 840 840 840 838 837 835 833 830 829 827 824 822 821
786 792 813 807 799 781 766 776 780 780 769 763 766 769 778 784 786 787 787 791 797 804 810 817 822 826 831 834 836 838 838 838 838 837 836 834 832 829 827 824 823 820 818 815
793 792 791 817 801 800 771 778 779 778 778 768 767 772 781 785 784 771 786 793 799 805 811 817 823 827 830 833 835 837 836 836 835 834 832 830 828 825 823 821 819 817 815 812
802 808 803 805 801 785 771 778 780 786 780 772 770 772 779 780 777 785 786 796 802 808 814 820 825 828 830 833 835 835 834 833 832 830 828 826 824 822 821 818 816 813 810 810
786 795 805 812 806 798 775 781 783 774 773 775 775 775 779 784 790 791 793 799 806 811 817 822 825 828 830 832 832 832 831 830 829 827 824 822 820 819 816 815 813 810 808 807
783 774 777 780 773 772 774 770 774 776 776 777 778 779 782 788 792 795 799 805 813 817 821 823 826 829 829 830 830 829 828 827 825 823 821 819 817 815 813 811 809 808 806 805
776 781 780 781 766 770 772 772 773 775 777 779 781 781 782 785 792 798 806 812 816 819 824 827 826 826 826 827 827 827 825 824 822 820 819 818 815 813 810 808 805 805 804 802
771 779 774 775 767 768 771 775 778 778 781 782 783 783 783 788 795 803 810 815 820 823 825 825 824 825 824 825 825 823 821 820 818 817 815 814 812 809 806 805 803 801 801 799
772 768 774 771 775 773 777 783 783 780 781 783 785 788 791 797 804 809 814 818 821 821 823 823 823 823 823 823 821 819 818 817 815 813 810 809 807 805 803 801 799 797 796 795